024  
NZUS93 KARX 170110  
HRRWXR  
 
CURRENT HOURLY OBSERVATIONS ACROSS  
MUCH OF THE UPPER MISSISSIPPI VALLEY  
NATIONAL WEATHER SERVICE LA CROSSE WI  
800 PM CDT MON OCT 16 2017  
 
   
..SOUTHEAST MINNESOTA
 
 
 
CITY SKY/WX TMP DP RH WIND PRES REMARKS  
ROCHESTER CLEAR 52 39 61 S12 30.07S  
ROCHESTER/MAYO FAIR 57 36 44 S9 30.06S  
WINONA CLEAR 52 41 66 CALM 30.06F  
AUSTIN CLEAR 54 37 54 S8 30.07S  
ALBERT LEA CLEAR 63 37 39 S8 30.06S  
DODGE CENTER CLEAR 55 36 47 S14 30.05S  
PRESTON CLEAR 53 36 52 S9 30.09S  
OWATONNA CLOUDY 57 37 47 S9 30.03F  
FARIBAULT CLEAR 55 37 50 S6 30.03S  

 
   
..ELSEWHERE IN MINNESOTA
 
 
 
CITY SKY/WX TMP DP RH WIND PRES REMARKS  
MINNEAPOLIS PTCLDY 61 38 42 S9 29.98F  
INTNL FALLS CLEAR 45 35 68 SW6 29.80R  
DULUTH CLEAR 53 36 52 SW13 29.90F  
RED WING CLEAR 57 34 41 CALM 30.02S  
REDWOOD FALLS CLOUDY 58 38 47 S10 29.97S  
MANKATO PTCLDY 59 37 44 S8 30.01F  
WORTHINGTON CLOUDY 58 38 47 S7 30.03S  
FAIRMONT CLOUDY 56 40 55 S10 30.04S  

 
   
..SOUTHWEST WISCONSIN
 
 
 
CITY SKY/WX TMP DP RH WIND PRES REMARKS  
LA CROSSE CLEAR 53 41 63 SE7 30.08F  
PRAIRIE DU CHI CLEAR 51 39 65 E3 30.13F  
BOSCOBEL CLEAR 49 41 74 CALM 30.14F  
LONE ROCK CLEAR 46 40 79 E3 30.14F  
PLATTEVILLE CLEAR 52 37 56 S9 30.17S  
FORT MC COY CLEAR 43 38 80 S3 30.10F  
CAMP DOUGLAS PTCLDY 48 36 61 S7 30.10F  
MAUSTON-NEW LI CLEAR 47 40 76 S5 30.11S  
VIROQUA FAIR 53 36 52 CALM 30.12S  
WIS DELLS CLEAR 47 37 68 S6 30.13F  

 
   
..ELSEWHERE IN WISCONSIN
 
 
 
CITY SKY/WX TMP DP RH WIND PRES REMARKS  
MILWAUKEE CLEAR 52 38 58 S6 30.18F  
MADISON CLEAR 53 38 56 S5 30.15F  
GREEN BAY CLEAR 50 42 74 S5 30.12R  
EAU CLAIRE CLEAR 53 36 52 S8 30.02F  
BLACK RVR FLS FAIR 41 36 83 S3 30.07F  
MEDFORD CLEAR 45 35 68 S7 30.05F  
WAUSAU CLEAR 49 37 63 CALM 30.07S  
WIS RAPIDS CLEAR 47 39 74 S5 30.10F  
MARSHFIELD CLEAR 47 34 60 S7 30.07F  
RICE LAKE CLEAR 48 36 63 SE5 30.02S  

 
   
..NORTHEAST IOWA
 
 
 
CITY SKY/WX TMP DP RH WIND PRES REMARKS  
WATERLOO CLEAR 54 37 52 S9 30.12F  
DUBUQUE CLEAR 49 37 63 S6 30.17F  
DECORAH CLEAR 55 36 47 S8 30.10F  
MASON CITY CLEAR 50 37 61 S9 30.10S  
CHARLES CITY CLEAR 55 36 47 S8 30.11S  
OELWEIN CLEAR 52 37 58 S10 30.14F  

 
   
..ELSEWHERE IN IOWA
 
 
 
CITY SKY/WX TMP DP RH WIND PRES REMARKS  
DES MOINES PTCLDY 58 39 49 S9 30.15S  
IOWA CITY CLEAR 54 39 57 S6 30.20S  
FORT DODGE CLEAR 58 39 49 S9 30.10S  
MARSHALLTOWN CLEAR 55 39 54 S8 30.13F  
CEDAR RAPIDS CLEAR 53 37 54 S5 30.17S  

 
   
..NORTHERN ILLINOIS
 
 
 
CITY SKY/WX TMP DP RH WIND PRES REMARKS  
CHICAGO-OHARE CLEAR 55 37 50 SW5 30.21S  
CHICAGO-MIDWAY CLEAR 57 37 47 SW5 30.22S  
MOLINE CLEAR 52 38 58 S7 30.20F  
ROCKFORD CLEAR 50 39 66 S5 30.22R  
PEORIA CLEAR 51 41 68 CALM 30.25R  

 
 
NOTE: "FAIR" INDICATES FEW OR NO CLOUDS BELOW 12,000 FEET WITH NO  
SIGNIFICANT WEATHER AND/OR OBSTRUCTIONS TO VISIBILITY. WIND  
SPEEDS ARE IN MILES-PER-HOUR.  
 
 
CLICK HERE TO GO TO PREVIOUS BULLETINS.

The Nexlab WI Page
The Nexlab IA Page
The Nexlab MN Page Main Text Page